Portada
METAR-TAF:

METAR-TAF

Aeropuertos :

Aeropuerto Almirante Padilla

Riohacha, Colombia

latitud: 11-32N, longitud: 072-56W, altitud: 4 m

Observación

El informe se hizo hace 1 hora y 53 minutos, a las 23:00 UTC
Viento 6 kt del este-sureste
Temperatura 30°C
Humedad 62%
Presión 1006 hPa
Visibilidad 10 km o más
Escasas nubes a una altura de 2000 ft

METAR: SKRH 182300Z 12006KT 9999 FEW020 30/22 A2972

Hora: 19:53 (00:53 UTC)


TAF: falta

Observaciones y pronósticos meteorológicos de más de 4000 aeropuertos (mensajes METAR y TAF).

Los puntos amarillos y rojos representan las estaciones disponibles.

Ponga el ratón en el punto deseado para ver el nombre de la estación.

Haga clic para ver las observaciones y los pronósticos meteorológicos.

Para cambiar el mapa : haga clic en los botones verdes con una cruz de color negro para hacer un zoom, en el botón verde con un guión para alejar o en las flechas verdes para mapas adyacentes.


METAR-TAF: